Simultaneous Nadir Overpasses (SNOs) Predictions

Prediction of SNOs near US between AQUA and NPP Satellite Orbit:

Table of predicted SNOs near US for the next 10.0 days since TLE Epoch: 10/7/2016
Index Date (AQUA) Time (AQUA) AQUA Lat,Lon Date (NPP) Time (NPP) NPP Lat,Lon Distance(km) Time Diff (sec)
1 10/09/2016 19:05:56 49.98, -92.55 10/09/2016 19:01:48 49.67, -94.37 135.45 248
2 10/09/2016 20:44:49 49.97,-117.27 10/09/2016 20:43:16 49.56,-119.70 180.76 93
3 10/12/2016 08:34:23 20.91,-101.68 10/12/2016 08:26:18 20.96,-101.82 15.74 485
4 10/12/2016 10:10:45 30.00,-124.16 10/12/2016 10:05:11 30.15,-124.81 64.56 334
5 10/15/2016 07:18:19 49.88, -76.01 10/15/2016 07:20:48 50.33, -78.22 165.41 149
6 10/15/2016 08:57:12 49.89,-100.73 10/15/2016 09:02:16 50.44,-103.54 209.92 304
